GW3564 Weather Reports


time (UTC)temp
C
wind
direction
speed
KPH
gust
KPH
rain 1hr
cm
rain 24hr
cm
rain mn
cm
humidity
%
barometer
mb
20260906102439 18 179 0.0 0.0 0.00 0.00 0.00 99 1016.0
20260906101933 18 173 0.0 0.0 0.00 0.00 0.00 99 1016.2
20260906101428 18 180 0.0 0.0 0.00 0.00 0.00 99 1016.2
20260906100923 18 185 0.0 0.0 0.00 0.00 0.00 99 1016.0
20260906100418 18 187 0.0 0.0 0.00 0.00 0.00 99 1016.0
20260906095912 18 188 0.0 0.0 0.00 0.00 0.00 99 1015.9
20260906095408 18 187 0.0 0.0 0.00 0.00 0.00 99 1015.9
20260906094902 18 188 0.0 0.0 0.00 0.00 0.00 99 1015.9
20260906094356 18 177 0.0 0.0 0.00 0.00 0.00 99 1016.0
20260906093853 18 179 0.0 0.0 0.00 0.00 0.00 99 1015.9
20260906093348 17 177 0.0 0.0 0.00 0.00 0.00 99 1015.9
20260906092843 17 177 0.0 0.0 0.00 0.00 0.00 99 1016.1
20260906092337 17 196 0.0 0.0 0.00 0.00 0.00 99 1015.8
20260906091833 17 196 0.0 0.0 0.00 0.00 0.00 99 1015.8
20260906091329 17 197 0.0 0.0 0.00 0.00 0.00 99 1015.8
20260906090826 17 198 0.0 0.0 0.00 0.00 0.00 99 1015.8
20260906090325 17 198 0.0 0.0 0.00 0.00 0.00 99 1015.7
20260906085824 17 183 0.0 0.0 0.00 0.00 0.00 99 1015.9
20260906085318 17 183 0.0 0.0 0.00 0.00 0.00 99 1015.6
20260906084813 17 181 0.0 0.0 0.00 0.00 0.00 99 1016.1
20260906084312 17 181 0.0 0.0 0.00 0.00 0.00 99 1015.6
20260906083807 17 196 0.0 0.0 0.00 0.00 0.00 99 1015.7
20260906083303 17 197 0.0 0.0 0.00 0.00 0.00 99 1015.7
20260906082757 17 196 0.0 0.0 0.00 0.00 0.00 99 1015.5
20260906082252 17 197 0.0 0.0 0.00 0.00 0.00 99 1015.8
20260906081748 17 198 0.0 0.0 0.00 0.00 0.00 99 1015.6
20260906081243 17 188 0.0 0.0 0.00 0.00 0.00 99 1015.4
20260906080739 17 190 0.0 0.0 0.00 0.00 0.00 99 1015.4
20260906080236 17 180 0.0 0.0 0.00 0.00 0.00 99 1015.6
20260906075729 17 182 0.0 0.0 0.00 0.00 0.00 99 1015.5
20260906075224 17 182 0.0 0.0 0.00 0.00 0.00 99 1015.4
20260906074719 17 182 0.0 0.0 0.00 0.00 0.00 99 1015.4
20260906074219 17 180 0.0 0.0 0.00 0.00 0.00 99 1015.4
20260906073713 17 180 0.0 0.0 0.00 0.00 0.00 99 1015.6
20260906073208 17 179 0.0 0.0 0.00 0.00 0.00 99 1015.5
20260906072704 17 190 0.0 0.0 0.00 0.00 0.00 99 1015.6
20260906072159 17 178 0.0 0.0 0.00 0.00 0.00 99 1015.6
20260906071656 18 177 0.0 0.0 0.00 0.00 0.00 99 1015.6
20260906071155 18 177 0.0 0.0 0.00 0.00 0.00 99 1015.5
20260906070652 18 177 0.0 0.0 0.00 0.00 0.00 99 1015.7
20260906070147 18 185 0.0 0.0 0.00 0.00 0.00 99 1015.7
20260906065647 18 185 0.0 0.0 0.00 0.00 0.00 99 1015.7
20260906065142 18 186 0.0 0.0 0.00 0.00 0.00 99 1015.9
20260906064637 18 169 0.0 0.0 0.00 0.00 0.00 99 1015.9
20260906064132 18 177 0.0 0.0 0.00 0.00 0.00 99 1016.1
20260906063627 18 177 0.0 0.0 0.00 0.00 0.00 99 1016.1
20260906063118 18 198 0.0 0.0 0.00 0.00 0.00 99 1016.1
20260906062614 18 196 0.0 0.0 0.00 0.00 0.00 99 1016.3
20260906062112 17 196 0.0 0.0 0.00 0.00 0.00 99 1015.9
20260906061609 18 187 0.0 0.0 0.00 0.00 0.00 99 1016.1
20260906061108 17 186 0.0 0.0 0.00 0.00 0.00 99 1016.1
20260906060605 17 191 0.0 0.0 0.00 0.00 0.00 99 1016.2
20260906055557 18 180 0.0 0.0 0.00 0.00 0.00 99 1016.1
20260906055053 18 183 0.0 0.0 0.00 0.00 0.00 99 1015.9
20260906054553 18 183 0.0 0.0 0.00 0.00 0.00 99 1015.9
20260906054048 18 183 0.0 0.0 0.00 0.00 0.00 99 1015.9
20260906053544 18 191 0.0 0.0 0.00 0.00 0.00 99 1016.2
20260906053039 18 191 0.0 0.0 0.00 0.00 0.00 99 1016.1
20260906052535 18 170 0.0 0.0 0.00 0.00 0.00 99 1016.0
20260906052032 18 196 0.0 0.0 0.00 0.00 0.00 99 1016.0
20260906051527 18 198 0.0 0.0 0.00 0.00 0.00 99 1015.7
20260906051023 18 181 0.0 0.0 0.00 0.00 0.00 99 1015.9
20260906050518 18 194 0.0 0.0 0.00 0.00 0.00 99 1015.8
20260906050012 18 188 0.0 0.0 0.00 0.00 0.00 99 1015.6
20260906045511 18 193 0.0 0.0 0.00 0.00 0.00 99 1015.8
20260906045007 18 189 0.0 0.0 0.00 0.00 0.00 99 1015.9
20260906044502 18 189 0.0 0.0 0.00 0.00 0.00 99 1015.9
20260906043957 18 183 0.0 0.0 0.00 0.00 0.00 99 1016.1
20260906043453 18 186 0.0 0.0 0.00 0.00 0.00 99 1016.0
20260906042949 18 181 0.0 0.0 0.00 0.00 0.00 99 1016.1
20260906042448 18 178 0.0 0.0 0.00 0.00 0.00 99 1016.0
20260906041947 18 193 0.0 0.0 0.00 0.00 0.00 99 1016.1
20260906041444 18 185 0.0 0.0 0.00 0.00 0.00 99 1016.2
20260906040943 18 185 0.0 0.0 0.00 0.00 0.00 99 1016.2
20260906040438 19 192 0.0 0.0 0.00 0.00 0.00 99 1016.1
20260906035933 19 193 0.0 0.0 0.00 0.00 0.00 99 1016.3
20260906035429 19 193 0.0 0.0 0.00 0.00 0.00 98 1016.2
20260906034924 19 185 0.0 0.0 0.00 0.00 0.00 98 1016.4
20260906034419 19 181 0.0 0.0 0.00 0.00 0.00 99 1016.0
20260906033914 19 204 0.0 0.0 0.00 0.00 0.00 98 1016.2
20260906033409 19 205 0.0 0.0 0.00 0.00 0.00 98 1016.1
20260906032905 19 210 0.0 0.0 0.00 0.00 0.00 98 1016.4
20260906032401 19 187 0.0 0.0 0.00 0.00 0.00 98 1016.3
20260906031855 19 180 0.0 0.0 0.00 0.00 0.00 98 1016.3
20260906031350 19 181 0.0 0.0 0.00 0.00 0.00 98 1016.5
20260906030845 19 182 0.0 0.0 0.00 0.00 0.00 98 1016.4
20260906030340 19 188 0.0 0.0 0.00 0.00 0.00 97 1016.2
20260906025835 19 190 0.0 0.0 0.00 0.00 0.00 97 1016.3
20260906025329 20 190 0.0 0.0 0.00 0.00 0.00 97 1016.7
20260906024828 20 179 0.0 0.0 0.00 0.00 0.00 97 1016.4
20260906024327 20 179 0.0 0.0 0.00 0.00 0.00 97 1016.3
20260906023823 20 179 0.0 0.0 0.00 0.00 0.00 97 1016.5
20260906023319 20 179 0.0 0.0 0.00 0.00 0.00 98 1016.4
20260906022814 20 179 0.0 0.0 0.00 0.00 0.00 97 1016.7
20260906022309 20 205 0.0 0.0 0.00 0.00 0.00 97 1016.5
20260906021804 20 205 0.0 0.0 0.00 0.00 0.00 97 1016.7
20260906021258 20 205 0.0 0.0 0.00 0.00 0.00 96 1016.7
20260906020752 20 205 0.0 0.0 0.00 0.00 0.00 95 1016.5
20260906020247 20 205 0.0 0.0 0.00 0.00 0.00 94 1016.4
20260906015741 20 204 0.0 0.0 0.00 0.00 0.00 93 1016.3
20260906015239 21 204 0.0 0.0 0.00 0.00 0.00 93 1016.5
20260906014734 21 205 0.0 0.0 0.00 0.00 0.00 92 1016.3
20260906014230 21 206 0.0 0.0 0.00 0.00 0.00 91 1016.1
20260906013726 21 206 0.0 0.0 0.00 0.00 0.00 91 1016.0
20260906013226 21 206 0.0 0.0 0.00 0.00 0.00 91 1016.3
20260906012721 21 206 0.0 0.0 0.00 0.00 0.00 91 1015.9
20260906012216 21 206 0.0 0.0 0.00 0.00 0.00 91 1016.1
20260906011711 21 206 0.0 0.0 0.00 0.00 0.00 91 1015.9
20260906011206 21 206 0.0 0.0 0.00 0.00 0.00 90 1016.0
20260906010702 21 206 0.0 0.0 0.00 0.00 0.00 89 1016.0
20260906010158 21 206 0.0 0.0 0.00 0.00 0.00 89 1015.7
20260906005657 22 206 0.0 0.0 0.00 0.00 0.00 88 1015.7
20260906005157 22 206 0.0 0.0 0.00 0.00 0.00 87 1015.9
20260906004655 22 206 0.0 0.0 0.00 0.00 0.00 87 1015.6
20260906004151 22 206 0.0 0.0 0.00 0.00 0.00 85 1015.7
20260906003646 22 206 0.0 0.0 0.00 0.00 0.00 83 1015.6
20260906003142 22 206 0.0 0.0 0.00 0.00 0.00 83 1015.8
20260906002636 23 206 0.0 0.0 0.00 0.00 0.00 82 1015.7
20260906002131 23 210 1.6 1.6 0.00 0.00 0.00 81 1015.7
20260906001626 23 188 0.0 0.0 0.00 0.00 0.00 80 1015.5
20260906001126 24 194 1.6 1.6 0.00 0.00 0.00 78 1015.5
20260906000622 25 204 0.0 1.6 0.00 0.00 0.00 75 1015.4
20260906000117 24 215 1.6 1.6 0.00 0.00 0.00 76 1015.4
20260905235616 25 231 1.6 1.6 0.00 0.00 0.00 75 1015.3
20260905235111 25 260 3.2 3.2 0.00 0.00 0.00 74 1015.4
20260905234607 24 205 1.6 1.6 0.00 0.00 0.00 75 1015.2
20260905234102 23 199 3.2 3.2 0.00 0.00 0.00 77 1015.2
20260905233601 25 196 1.6 1.6 0.00 0.00 0.00 76 1014.9
20260905233056 24 210 1.6 3.2 0.00 0.00 0.00 76 1015.2
20260905232551 25 203 0.0 0.0 0.00 0.00 0.00 76 1015.3
20260905232047 25 203 0.0 0.0 0.00 0.00 0.00 76 1015.3
20260905231542 26 202 0.0 0.0 0.00 0.00 0.00 73 1015.4
20260905231038 26 202 0.0 1.6 0.00 0.00 0.00 68 1015.4
20260905230537 26 203 4.8 8.0 0.00 0.00 0.00 67 1015.4
20260905230036 26 206 1.6 1.6 0.00 0.00 0.00 66 1015.2
20260905225525 26 203 1.6 1.6 0.00 0.00 0.00 67 1015.3
20260905225020 27 214 1.6 1.6 0.00 0.00 0.00 65 1015.4
20260905224515 27 192 1.6 3.2 0.00 0.00 0.00 64 1015.4
20260905224015 27 215 1.6 1.6 0.00 0.00 0.00 66 1015.3
20260905223512 27 345 0.0 1.6 0.00 0.00 0.00 64 1015.2
20260905223007 28 196 1.6 1.6 0.00 0.00 0.00 63 1015.4
20260905222502 28 199 1.6 1.6 0.00 0.00 0.00 66 1015.3
20260905221957 28 205 1.6 3.2 0.00 0.00 0.00 64 1015.3
20260905221454 28 253 4.8 9.7 0.00 0.00 0.00 59 1015.3
20260905220950 28 253 1.6 3.2 0.00 0.00 0.00 61 1015.1
20260905220446 28 280 4.8 4.8 0.00 0.00 0.00 61 1015.1
20260905215944 28 221 1.6 1.6 0.00 0.00 0.00 64 1015.1
20260905215440 28 162 0.0 0.0 0.00 0.00 0.00 64 1015.2
20260905214936 28 210 0.0 1.6 0.00 0.00 0.00 68 1014.7
20260905214431 27 221 3.2 3.2 0.00 0.00 0.00 66 1014.7
20260905213926 28 176 3.2 3.2 0.00 0.00 0.00 66 1014.5
20260905213422 28 199 0.0 1.6 0.00 0.00 0.00 66 1014.9
20260905212917 28 249 0.0 0.0 0.00 0.00 0.00 65 1014.7
20260905212412 28 251 4.8 4.8 0.00 0.00 0.00 65 1014.9
20260905211911 28 198 0.0 0.0 0.00 0.00 0.00 66 1014.7
20260905211407 27 229 0.0 1.6 0.00 0.00 0.00 66 1014.7
20260905210902 28 244 3.2 3.2 0.00 0.00 0.00 65 1014.7
20260905210357 28 199 0.0 0.0 0.00 0.00 0.00 69 1014.5
20260905205856 28 91 1.6 3.2 0.00 0.00 0.00 68 1014.9
20260905205351 28 5 1.6 4.8 0.00 0.00 0.00 67 1014.4
20260905204850 27 260 1.6 1.6 0.00 0.00 0.00 68 1014.7
20260905204347 27 229 1.6 3.2 0.00 0.00 0.00 68 1014.7
20260905203845 27 326 1.6 3.2 0.00 0.00 0.00 68 1014.7
20260905203341 28 225 3.2 3.2 0.00 0.00 0.00 66 1014.7
20260905202837 28 272 1.6 1.6 0.00 0.00 0.00 66 1014.6
20260905202331 27 224 3.2 4.8 0.00 0.00 0.00 66 1014.9
20260905201827 27 217 3.2 3.2 0.00 0.00 0.00 66 1014.6
20260905201322 27 239 3.2 3.2 0.00 0.00 0.00 66 1014.5
20260905200816 27 213 1.6 1.6 0.00 0.00 0.00 67 1014.5
20260905200313 27 242 3.2 3.2 0.00 0.00 0.00 66 1014.9
20260905195810 27 194 0.0 0.0 0.00 0.00 0.00 66 1014.7
20260905195307 27 257 1.6 1.6 0.00 0.00 0.00 68 1014.9
20260905194802 27 238 1.6 3.2 0.00 0.00 0.00 67 1014.5
20260905194300 27 276 1.6 3.2 0.00 0.00 0.00 66 1014.9
20260905193754 27 266 4.8 4.8 0.00 0.00 0.00 64 1014.7
20260905193249 27 191 1.6 3.2 0.00 0.00 0.00 67 1014.6
20260905192745 28 274 3.2 4.8 0.00 0.00 0.00 66 1015.1
20260905192241 28 291 3.2 3.2 0.00 0.00 0.00 66 1014.9
20260905191740 28 268 1.6 3.2 0.00 0.00 0.00 65 1015.1
20260905191239 27 236 0.0 0.0 0.00 0.00 0.00 67 1015.0
20260905190737 27 256 8.0 11.3 0.00 0.00 0.00 68 1015.3
20260905190237 28 205 1.6 1.6 0.00 0.00 0.00 68 1015.2
20260905185736 28 212 1.6 3.2 0.00 0.00 0.00 69 1015.5
20260905185230 27 196 0.0 1.6 0.00 0.00 0.00 70 1015.5
20260905184724 27 35 3.2 4.8 0.00 0.00 0.00 72 1015.2
20260905184224 27 179 0.0 0.0 0.00 0.00 0.00 72 1015.6
20260905183718 27 138 1.6 1.6 0.00 0.00 0.00 76 1015.8
20260905183213 26 199 1.6 3.2 0.00 0.00 0.00 78 1015.9
20260905182707 26 226 1.6 1.6 0.00 0.00 0.00 78 1016.1
20260905182206 26 230 4.8 4.8 0.00 0.00 0.00 78 1016.2
20260905181701 26 232 1.6 3.2 0.00 0.00 0.00 79 1016.3
20260905181155 26 234 4.8 4.8 0.00 0.00 0.00 79 1016.1
20260905180650 26 275 4.8 8.0 0.00 0.00 0.00 78 1016.1
20260905180145 26 244 4.8 8.0 0.00 0.00 0.00 78 1016.3
20260905175644 26 202 1.6 1.6 0.00 0.00 0.00 77 1016.3
20260905175140 26 188 3.2 4.8 0.00 0.00 0.00 78 1016.3
20260905174636 26 236 3.2 3.2 0.00 0.00 0.00 78 1016.5
20260905174131 26 260 1.6 3.2 0.00 0.00 0.00 78 1016.5
20260905173627 25 212 1.6 1.6 0.00 0.00 0.00 79 1016.7
20260905173122 26 209 1.6 3.2 0.00 0.00 0.00 79 1016.2
20260905172621 25 192 1.6 3.2 0.00 0.00 0.00 79 1016.4
20260905172115 26 218 6.4 8.0 0.00 0.00 0.00 78 1016.5
20260905171607 26 244 1.6 3.2 0.00 0.00 0.00 78 1016.2
20260905171102 25 192 0.0 0.0 0.00 0.00 0.00 80 1016.5
20260905170559 25 198 0.0 1.6 0.00 0.00 0.00 80 1016.9
20260905170053 25 205 0.0 0.0 0.00 0.00 0.00 79 1017.1
20260905165549 25 198 1.6 1.6 0.00 0.00 0.00 79 1017.2
20260905165043 25 224 1.6 1.6 0.00 0.00 0.00 79 1017.1
20260905164538 25 252 4.8 4.8 0.00 0.00 0.00 78 1017.4
20260905164032 25 248 1.6 1.6 0.00 0.00 0.00 78 1017.5
20260905163529 25 216 3.2 3.2 0.00 0.00 0.00 78 1017.3
20260905163024 25 216 3.2 3.2 0.00 0.00 0.00 77 1017.4
20260905162520 26 251 1.6 3.2 0.00 0.00 0.00 76 1017.3
20260905162014 26 236 1.6 1.6 0.00 0.00 0.00 75 1017.3
20260905161509 27 262 4.8 4.8 0.00 0.00 0.00 72 1017.5
20260905161006 27 201 1.6 1.6 0.00 0.00 0.00 74 1017.2
20260905160459 27 214 0.0 1.6 0.00 0.00 0.00 74 1017.5
20260905155954 27 200 0.0 0.0 0.00 0.00 0.00 73 1017.6
20260905155448 26 191 1.6 1.6 0.00 0.00 0.00 73 1017.8
20260905154942 26 195 0.0 0.0 0.00 0.00 0.00 74 1017.9
20260905154437 26 199 3.2 3.2 0.00 0.00 0.00 77 1018.1
20260905153932 25 211 0.0 0.0 0.00 0.00 0.00 82 1017.8
20260905153429 25 224 1.6 1.6 0.00 0.00 0.00 81 1018.1
20260905152928 25 210 0.0 0.0 0.00 0.00 0.00 80 1017.9
20260905152428 25 183 0.0 1.6 0.00 0.00 0.00 81 1018.0
20260905151922 25 222 1.6 1.6 0.00 0.00 0.00 82 1018.2
20260905151418 25 207 1.6 1.6 0.00 0.00 0.00 82 1017.8
20260905150913 25 205 1.6 1.6 0.00 0.00 0.00 83 1018.4
20260905150412 25 204 4.8 8.0 0.00 0.00 0.00 83 1018.4
20260905145909 25 232 0.0 0.0 0.00 0.00 0.00 85 1018.1
20260905145410 26 205 0.0 0.0 0.00 0.00 0.00 83 1017.8
20260905144909 26 211 0.0 0.0 0.00 0.00 0.00 82 1017.5
20260905144405 26 199 0.0 0.0 0.00 0.00 0.00 83 1017.3
20260905143903 26 194 0.0 0.0 0.00 0.00 0.00 84 1017.5
20260905143357 26 189 0.0 0.0 0.00 0.00 0.00 83 1017.5
20260905142852 26 208 0.0 0.0 0.00 0.00 0.00 84 1017.4
20260905142350 26 184 0.0 0.0 0.00 0.00 0.00 82 1017.4
20260905141847 26 207 0.0 0.0 0.00 0.00 0.00 81 1017.6
20260905141341 26 174 0.0 0.0 0.00 0.00 0.00 80 1017.4
20260905140837 26 205 0.0 0.0 0.00 0.00 0.00 80 1017.5
20260905140332 27 198 0.0 0.0 0.00 0.00 0.00 79 1017.5
20260905135830 26 198 0.0 0.0 0.00 0.00 0.00 81 1017.6
20260905135326 26 196 0.0 0.0 0.00 0.00 0.00 81 1017.5
20260905134821 26 200 0.0 0.0 0.00 0.00 0.00 82 1017.6
20260905134315 25 189 0.0 0.0 0.00 0.00 0.00 83 1017.4
20260905133814 25 197 0.0 0.0 0.00 0.00 0.00 85 1017.6
20260905133310 24 199 0.0 0.0 0.00 0.00 0.00 87 1017.6
20260905132809 23 196 0.0 0.0 0.00 0.00 0.00 88 1017.5
20260905132306 23 196 0.0 0.0 0.00 0.00 0.00 90 1017.6
20260905131759 23 205 0.0 0.0 0.00 0.00 0.00 90 1017.4
20260905131254 23 196 0.0 0.0 0.00 0.00 0.00 89 1017.4
20260905130749 23 184 0.0 0.0 0.00 0.00 0.00 93 1017.5
20260905130248 22 187 0.0 0.0 0.00 0.00 0.00 94 1017.5
20260905125744 21 195 0.0 0.0 0.00 0.00 0.00 95 1017.5
20260905125238 21 202 0.0 0.0 0.00 0.00 0.00 95 1017.5
20260905124735 21 219 0.0 0.0 0.00 0.00 0.00 96 1017.5
20260905124231 21 207 0.0 0.0 0.00 0.00 0.00 97 1017.3
20260905123725 21 203 0.0 0.0 0.00 0.00 0.00 97 1017.4
20260905123223 21 201 0.0 0.0 0.00 0.00 0.00 98 1017.5
20260905122722 21 188 0.0 0.0 0.00 0.00 0.00 99 1017.5
20260905122217 21 188 0.0 0.0 0.00 0.00 0.00 99 1017.4
20260905121712 20 192 0.0 0.0 0.00 0.00 0.00 99 1017.6
20260905121209 20 189 0.0 0.0 0.00 0.00 0.00 99 1017.3
20260905120708 20 202 0.0 0.0 0.00 0.00 0.00 99 1017.6
20260905120202 20 196 0.0 0.0 0.00 0.00 0.00 99 1017.3
20260905115701 19 191 0.0 0.0 0.00 0.00 0.00 99 1017.3
20260905115156 19 182 0.0 0.0 0.00 0.00 0.00 99 1017.4
20260905114656 19 197 0.0 0.0 0.00 0.00 0.00 99 1017.4
20260905114154 18 190 0.0 0.0 0.00 0.00 0.00 99 1017.3
20260905113649 18 194 0.0 0.0 0.00 0.00 0.00 99 1017.1
20260905113145 18 199 0.0 0.0 0.00 0.00 0.00 99 1017.3
20260905112644 18 196 0.0 0.0 0.00 0.00 0.00 99 1017.1
20260905112141 18 194 0.0 0.0 0.00 0.00 0.00 99 1017.3
20260905111640 18 190 0.0 0.0 0.00 0.00 0.00 99 1017.1
20260905111139 18 209 0.0 0.0 0.00 0.00 0.00 99 1017.3
20260905110638 18 192 0.0 0.0 0.00 0.00 0.00 99 1017.0
20260905110134 18 203 0.0 0.0 0.00 0.00 0.00 99 1017.1
20260905105629 18 203 0.0 0.0 0.00 0.00 0.00 99 1017.3
20260905105128 18 198 0.0 0.0 0.00 0.00 0.00 99 1017.2
20260905104623 18 193 0.0 0.0 0.00 0.00 0.00 99 1017.2
20260905104119 18 189 0.0 0.0 0.00 0.00 0.00 99 1017.4
20260905103614 18 191 0.0 0.0 0.00 0.00 0.00 99 1017.2
20260905103110 18 191 0.0 0.0 0.00 0.00 0.00 99 1017.0
20260905102605 18 189 0.0 0.0 0.00 0.00 0.00 99 1016.9